Time,TemperatureF,DewpointF,PressureIn,WindDirection,WindDirectionDegrees,WindSpeedMPH,WindSpeedGustMPH,Humidity,HourlyPrecipIn,Conditions,Clouds,dailyrainin,SolarRadiationWatts/m^2,SoftwareType,DateUTC
2013-02-26 00:01:00,27.0,23.0,-100.00,SSW,202,5.0,7.0,86,0.00,,,0.00,1.000000,,2013-02-26 08:01:00,
2013-02-26 00:21:00,26.0,22.0,-100.00,SSW,193,6.0,8.0,86,0.00,,,0.00,1.000000,,2013-02-26 08:21:00,
2013-02-26 00:32:00,26.0,22.0,-100.00,SSW,193,6.0,8.0,86,0.00,,,0.00,1.000000,,2013-02-26 08:32:00,
2013-02-26 00:42:00,26.0,22.0,-100.00,SSW,193,6.0,8.0,86,0.00,,,0.00,1.000000,,2013-02-26 08:42:00,
2013-02-26 00:52:00,26.0,22.0,-100.00,SSW,193,6.0,8.0,86,0.00,,,0.00,1.000000,,2013-02-26 08:52:00,
2013-02-26 01:01:00,26.0,22.0,-100.00,SSW,193,6.0,8.0,86,0.00,,,0.00,1.000000,,2013-02-26 09:01:00,
2013-02-26 01:32:00,25.0,20.0,-100.00,SW,215,4.0,8.0,81,0.00,,,0.00,1.000000,,2013-02-26 09:32:00,
2013-02-26 01:43:00,25.0,20.0,-100.00,SW,215,4.0,8.0,81,0.00,,,0.00,1.000000,,2013-02-26 09:43:00,
2013-02-26 01:52:00,25.0,20.0,-100.00,SW,215,4.0,8.0,81,0.00,,,0.00,1.000000,,2013-02-26 09:52:00,
2013-02-26 02:01:00,25.0,20.0,-100.00,SW,215,4.0,8.0,81,0.00,,,0.00,1.000000,,2013-02-26 10:01:00,
2013-02-26 02:21:00,26.0,20.0,-100.00,SSW,203,7.0,8.0,77,0.00,,,0.00,1.000000,,2013-02-26 10:21:00,
2013-02-26 02:32:00,26.0,20.0,-100.00,SSW,203,7.0,8.0,77,0.00,,,0.00,1.000000,,2013-02-26 10:32:00,
2013-02-26 02:42:00,26.0,20.0,-100.00,SSW,203,7.0,8.0,77,0.00,,,0.00,1.000000,,2013-02-26 10:42:00,
2013-02-26 02:52:00,26.0,20.0,-100.00,SSW,203,7.0,8.0,77,0.00,,,0.00,1.000000,,2013-02-26 10:52:00,
2013-02-26 03:01:00,26.0,20.0,-100.00,SSW,203,7.0,8.0,77,0.00,,,0.00,1.000000,,2013-02-26 11:01:00,
2013-02-26 03:22:00,26.0,19.0,-100.00,SSW,212,6.0,9.0,76,0.00,,,0.00,1.000000,,2013-02-26 11:22:00,
2013-02-26 03:32:00,26.0,19.0,-100.00,SSW,212,6.0,9.0,76,0.00,,,0.00,1.000000,,2013-02-26 11:32:00,
2013-02-26 03:42:00,26.0,19.0,-100.00,SSW,212,6.0,9.0,76,0.00,,,0.00,1.000000,,2013-02-26 11:42:00,
2013-02-26 03:52:00,26.0,19.0,-100.00,SSW,212,6.0,9.0,76,0.00,,,0.00,1.000000,,2013-02-26 11:52:00,
2013-02-26 04:01:00,26.0,19.0,-100.00,SSW,212,6.0,9.0,76,0.00,,,0.00,1.000000,,2013-02-26 12:01:00,
2013-02-26 04:22:00,25.0,19.0,-100.00,South,181,6.0,9.0,77,0.00,,,0.00,1.000000,,2013-02-26 12:22:00,
2013-02-26 04:32:00,25.0,19.0,-100.00,South,181,6.0,9.0,77,0.00,,,0.00,1.000000,,2013-02-26 12:32:00,
2013-02-26 04:42:00,25.0,19.0,-100.00,South,181,6.0,9.0,77,0.00,,,0.00,1.000000,,2013-02-26 12:42:00,
2013-02-26 04:53:00,25.0,19.0,-100.00,South,181,6.0,9.0,77,0.00,,,0.00,1.000000,,2013-02-26 12:53:00,
2013-02-26 05:01:00,25.0,19.0,-100.00,South,181,6.0,9.0,77,0.00,,,0.00,1.000000,,2013-02-26 13:01:00,
2013-02-26 05:22:00,25.0,19.0,-100.00,SW,229,4.0,11.0,76,0.00,,,0.00,1.000000,,2013-02-26 13:22:00,
2013-02-26 05:32:00,25.0,19.0,-100.00,SW,229,4.0,11.0,76,0.00,,,0.00,1.000000,,2013-02-26 13:32:00,
2013-02-26 05:42:00,25.0,19.0,-100.00,SW,229,4.0,11.0,76,0.00,,,0.00,1.000000,,2013-02-26 13:42:00,
2013-02-26 05:52:00,25.0,19.0,-100.00,SW,229,4.0,11.0,76,0.00,,,0.00,1.000000,,2013-02-26 13:52:00,
2013-02-26 06:01:00,25.0,19.0,-100.00,SW,229,4.0,11.0,76,0.00,,,0.00,1.000000,,2013-02-26 14:01:00,
2013-02-26 06:32:00,26.0,17.0,-100.00,SSW,202,6.0,10.0,68,0.00,,,0.00,1.000000,,2013-02-26 14:32:00,
2013-02-26 06:42:00,26.0,17.0,-100.00,SSW,202,6.0,10.0,68,0.00,,,0.00,1.000000,,2013-02-26 14:42:00,
2013-02-26 06:52:00,26.0,17.0,-100.00,SSW,202,6.0,10.0,68,0.00,,,0.00,1.000000,,2013-02-26 14:52:00,
2013-02-26 07:01:00,26.0,17.0,-100.00,SSW,202,6.0,10.0,68,0.00,,,0.00,1.000000,,2013-02-26 15:01:00,
2013-02-26 07:32:00,28.0,18.0,-100.00,South,191,10.0,16.0,66,0.00,,,0.00,3.000000,,2013-02-26 15:32:00,
2013-02-26 07:42:00,28.0,18.0,-100.00,South,191,10.0,16.0,66,0.00,,,0.00,3.000000,,2013-02-26 15:42:00,
2013-02-26 07:52:00,28.0,18.0,-100.00,South,191,10.0,16.0,66,0.00,,,0.00,3.000000,,2013-02-26 15:52:00,
2013-02-26 08:01:00,28.0,18.0,-100.00,South,191,10.0,16.0,66,0.00,,,0.00,3.000000,,2013-02-26 16:01:00,
2013-02-26 08:32:00,33.0,18.0,-100.00,SSE,159,8.0,15.0,53,0.00,,,0.00,84.000000,,2013-02-26 16:32:00,
2013-02-26 08:42:00,33.0,18.0,-100.00,SSE,159,8.0,15.0,53,0.00,,,0.00,84.000000,,2013-02-26 16:42:00,
2013-02-26 08:52:00,33.0,18.0,-100.00,SSE,159,8.0,15.0,53,0.00,,,0.00,84.000000,,2013-02-26 16:52:00,
2013-02-26 09:01:00,33.0,18.0,-100.00,SSE,159,8.0,15.0,53,0.00,,,0.00,84.000000,,2013-02-26 17:01:00,
2013-02-26 09:32:00,36.0,17.0,-100.00,SSE,161,9.0,15.0,45,0.00,,,0.00,246.000000,,2013-02-26 17:32:00,
2013-02-26 09:42:00,36.0,17.0,-100.00,SSE,161,9.0,15.0,45,0.00,,,0.00,246.000000,,2013-02-26 17:42:00,
2013-02-26 09:52:00,36.0,17.0,-100.00,SSE,161,9.0,15.0,45,0.00,,,0.00,246.000000,,2013-02-26 17:52:00,
2013-02-26 10:01:00,36.0,17.0,-100.00,SSE,161,9.0,15.0,45,0.00,,,0.00,246.000000,,2013-02-26 18:01:00,
2013-02-26 10:32:00,37.0,16.0,-100.00,South,173,11.0,18.0,41,0.00,,,0.00,379.000000,,2013-02-26 18:32:00,
2013-02-26 10:42:00,37.0,16.0,-100.00,South,173,11.0,18.0,41,0.00,,,0.00,379.000000,,2013-02-26 18:42:00,
2013-02-26 10:52:00,37.0,16.0,-100.00,South,173,11.0,18.0,41,0.00,,,0.00,379.000000,,2013-02-26 18:52:00,
2013-02-26 11:01:00,37.0,16.0,-100.00,South,173,11.0,18.0,41,0.00,,,0.00,379.000000,,2013-02-26 19:01:00,
2013-02-26 11:32:00,40.0,16.0,-100.00,SE,138,10.0,15.0,38,0.00,,,0.00,490.000000,,2013-02-26 19:32:00,
2013-02-26 11:42:00,40.0,16.0,-100.00,SE,138,10.0,15.0,38,0.00,,,0.00,490.000000,,2013-02-26 19:42:00,
2013-02-26 11:52:00,40.0,16.0,-100.00,SE,138,10.0,15.0,38,0.00,,,0.00,490.000000,,2013-02-26 19:52:00,
2013-02-26 12:01:00,40.0,16.0,-100.00,SE,138,10.0,15.0,38,0.00,,,0.00,490.000000,,2013-02-26 20:01:00,
2013-02-26 13:31:00,44.0,10.0,-100.00,SSE,158,8.0,17.0,24,-99.99,,,0.00,471.000000,,2013-02-26 21:31:00,
2013-02-26 13:41:00,44.0,10.0,-100.00,SSE,158,8.0,17.0,24,-99.99,,,0.00,471.000000,,2013-02-26 21:41:00,
2013-02-26 13:51:00,44.0,10.0,-100.00,SSE,158,8.0,17.0,24,-99.99,,,0.00,471.000000,,2013-02-26 21:51:00,
2013-02-26 14:01:00,44.0,10.0,-100.00,SSE,158,8.0,17.0,24,-99.99,,,0.00,471.000000,,2013-02-26 22:01:00,
2013-02-26 14:32:00,46.0,8.0,-100.00,South,179,7.0,12.0,21,0.00,,,0.00,513.000000,,2013-02-26 22:32:00,
2013-02-26 14:42:00,46.0,8.0,-100.00,South,179,7.0,12.0,21,0.00,,,0.00,513.000000,,2013-02-26 22:42:00,
2013-02-26 14:52:00,46.0,8.0,-100.00,South,179,7.0,12.0,21,0.00,,,0.00,513.000000,,2013-02-26 22:52:00,
2013-02-26 15:01:00,46.0,8.0,-100.00,South,179,7.0,12.0,21,0.00,,,0.00,513.000000,,2013-02-26 23:01:00,
2013-02-26 15:32:00,47.0,9.0,-100.00,SSE,165,7.0,11.0,21,0.00,,,0.00,370.000000,,2013-02-26 23:32:00,
2013-02-26 15:42:00,47.0,9.0,-100.00,SSE,165,7.0,11.0,21,0.00,,,0.00,370.000000,,2013-02-26 23:42:00,
2013-02-26 15:52:00,47.0,9.0,-100.00,SSE,165,7.0,11.0,21,0.00,,,0.00,370.000000,,2013-02-26 23:52:00,
2013-02-26 16:01:00,47.0,9.0,-100.00,SSE,165,7.0,11.0,21,0.00,,,0.00,370.000000,,2013-02-27 00:01:00,
2013-02-26 16:22:00,48.0,8.0,-100.00,SSW,211,5.0,11.0,19,0.00,,,0.00,293.000000,,2013-02-27 00:22:00,
2013-02-26 16:32:00,48.0,8.0,-100.00,SSW,211,5.0,11.0,19,0.00,,,0.00,293.000000,,2013-02-27 00:32:00,
2013-02-26 16:42:00,48.0,8.0,-100.00,SSW,211,5.0,11.0,19,0.00,,,0.00,293.000000,,2013-02-27 00:42:00,
2013-02-26 16:52:00,48.0,8.0,-100.00,SSW,211,5.0,11.0,19,0.00,,,0.00,293.000000,,2013-02-27 00:52:00,
2013-02-26 17:01:00,48.0,8.0,-100.00,SSW,211,5.0,11.0,19,0.00,,,0.00,293.000000,,2013-02-27 01:01:00,
2013-02-26 17:22:00,44.0,14.0,-100.00,ESE,117,4.0,8.0,29,0.00,,,0.00,83.000000,,2013-02-27 01:22:00,
2013-02-26 17:32:00,44.0,14.0,-100.00,ESE,117,4.0,8.0,29,0.00,,,0.00,83.000000,,2013-02-27 01:32:00,
2013-02-26 17:42:00,44.0,14.0,-100.00,ESE,117,4.0,8.0,29,0.00,,,0.00,83.000000,,2013-02-27 01:42:00,
2013-02-26 17:52:00,44.0,14.0,-100.00,ESE,117,4.0,8.0,29,0.00,,,0.00,83.000000,,2013-02-27 01:52:00,
2013-02-26 18:01:00,44.0,14.0,-100.00,ESE,117,4.0,8.0,29,0.00,,,0.00,83.000000,,2013-02-27 02:01:00,
2013-02-26 18:24:00,43.0,14.0,-100.00,SE,140,6.0,12.0,30,0.00,,,0.00,28.000000,,2013-02-27 02:24:00,
2013-02-26 18:32:00,43.0,14.0,-100.00,SE,140,6.0,12.0,30,0.00,,,0.00,28.000000,,2013-02-27 02:32:00,
2013-02-26 18:42:00,43.0,14.0,-100.00,SE,140,6.0,12.0,30,0.00,,,0.00,28.000000,,2013-02-27 02:42:00,
2013-02-26 18:52:00,43.0,14.0,-100.00,SE,140,6.0,12.0,30,0.00,,,0.00,28.000000,,2013-02-27 02:52:00,
2013-02-26 19:01:00,43.0,14.0,-100.00,SE,140,6.0,12.0,30,0.00,,,0.00,28.000000,,2013-02-27 03:01:00,
2013-02-26 19:32:00,40.0,15.0,-100.00,WNW,303,2.0,5.0,35,0.00,,,-99.99,1.000000,,2013-02-27 03:32:00,
2013-02-26 19:42:00,40.0,15.0,-100.00,WNW,303,2.0,5.0,35,0.00,,,-99.99,1.000000,,2013-02-27 03:42:00,
2013-02-26 19:52:00,40.0,15.0,-100.00,WNW,303,2.0,5.0,35,0.00,,,-99.99,1.000000,,2013-02-27 03:52:00,
2013-02-26 20:01:00,40.0,15.0,-100.00,WNW,303,2.0,5.0,35,0.00,,,-99.99,1.000000,,2013-02-27 04:01:00,
2013-02-26 20:32:00,40.0,16.0,-100.00,WSW,257,3.0,7.0,37,0.00,,,0.00,1.000000,,2013-02-27 04:32:00,
2013-02-26 20:42:00,40.0,16.0,-100.00,WSW,257,3.0,7.0,37,0.00,,,0.00,1.000000,,2013-02-27 04:42:00,
2013-02-26 20:52:00,40.0,16.0,-100.00,WSW,257,3.0,7.0,37,0.00,,,0.00,1.000000,,2013-02-27 04:52:00,
2013-02-26 21:01:00,40.0,16.0,-100.00,WSW,257,3.0,7.0,37,0.00,,,0.00,1.000000,,2013-02-27 05:01:00,
2013-02-26 21:02:00,40.0,13.0,-100.00,ENE,77,4.0,7.0,33,0.00,,,0.00,1.000000,,2013-02-27 05:02:00,
2013-02-26 21:32:00,40.0,13.0,-100.00,ENE,77,4.0,7.0,33,0.00,,,0.00,1.000000,,2013-02-27 05:32:00,
2013-02-26 21:42:00,40.0,13.0,-100.00,ENE,77,4.0,7.0,33,0.00,,,0.00,1.000000,,2013-02-27 05:42:00,
2013-02-26 21:52:00,40.0,13.0,-100.00,ENE,77,4.0,7.0,33,0.00,,,0.00,1.000000,,2013-02-27 05:52:00,
2013-02-26 22:22:00,38.0,17.0,-100.00,NE,35,2.0,8.0,42,0.00,,,0.00,1.000000,,2013-02-27 06:22:00,
2013-02-26 22:33:00,38.0,17.0,-100.00,NE,35,2.0,8.0,42,0.00,,,0.00,1.000000,,2013-02-27 06:33:00,
2013-02-26 22:42:00,38.0,17.0,-100.00,NE,35,2.0,8.0,42,0.00,,,0.00,1.000000,,2013-02-27 06:42:00,
2013-02-26 22:52:00,38.0,17.0,-100.00,NE,35,2.0,8.0,42,0.00,,,0.00,1.000000,,2013-02-27 06:52:00,
2013-02-26 23:01:00,38.0,17.0,-100.00,NE,35,2.0,8.0,42,0.00,,,0.00,1.000000,,2013-02-27 07:01:00,
2013-02-26 23:22:00,38.0,16.0,-100.00,SSW,193,1.0,5.0,40,0.00,,,0.00,1.000000,,2013-02-27 07:22:00,
2013-02-26 23:32:00,38.0,16.0,-100.00,SSW,193,1.0,5.0,40,0.00,,,0.00,1.000000,,2013-02-27 07:32:00,
2013-02-26 23:42:00,38.0,16.0,-100.00,SSW,193,1.0,5.0,40,0.00,,,0.00,1.000000,,2013-02-27 07:42:00,
2013-02-26 23:52:00,38.0,16.0,-100.00,SSW,193,1.0,5.0,40,0.00,,,0.00,1.000000,,2013-02-27 07:52:00,